Weather History for Big Piney, WY

Change the Weather History Date:

Saturday, September 21, 2013

  Actual Average Record
Temperature  
Mean Temperature 53 °F 48 °F  
Max Temperature 74 °F 66 °F 77 °F (2012)
Min Temperature 31 °F 30 °F 9 °F (1983)
Degree Days  
Heating Degree Days 12 17  
Month to date heating degree days 159 285  
Since 1 July heating degree days 260 578  
Cooling Degree Days 0 0  
Month to date cooling degree days 5 0  
Year to date cooling degree days 89 35  
Growing Degree Days 2 (Base 50)    
Moisture  
Dew Point 29 °F    
Average Humidity 51    
Maximum Humidity 89    
Minimum Humidity 12    
Precipitation  
Precipitation 0.00 in 0.03 in 0.40 in (1997)
Month to date precipitation 0.76 0.54  
Year to date precipitation 3.76 5.20  
Sea Level Pressure  
Sea Level Pressure 29.80 in    
Wind  
Wind Speed 7 mph (SSW)    
Max Wind Speed 26 mph    
Max Gust Speed 31 mph    
Visibility 10 miles    
Events      
T = Trace of Precipitation, MM = Missing Value Source: NWS Daily Summary

Daily Weather History Graph

Daily Weather History Graph

Search for Another Location

Airport:

Trip Planner

Search our weather history database for the weather conditions in past years. The results will help you decide how hot, cold, wet, or windy it might be!

Date:

Astronomy

Sep. 21, 2013 Rise Set
Actual Time 7:07 AM MDT 7:18 PM MDT
Civil Twilight 6:38 AM MDT 7:47 PM MDT
Nautical Twilight 6:05 AM MDT 8:20 PM MDT
Astronomical Twilight 5:32 AM MDT 8:53 PM MDT
Moon 8:27 PM MDT (9/21) 9:33 AM MDT (9/21)
Length of Visible Light 13h 08m
Length of Day
12h 11m
Waning Gibbous, 94% of the Moon is Illuminated
Sep 21
Waning Gibbous
Sep 26
Last Quarter
Oct 4
New
Oct 11
First Quarter
Oct 18
Full

Hourly Weather History & Observations

Time (MDT) Temp. Windchill Dew Point Humidity Pressure Visibility Wind Dir Wind Speed Gust Speed Precip Events Conditions
12:53 AM 37.9 °F 35.5 °F 33.1 °F 83% 29.93 in 10.0 mi East 3.5 mph - N/A   Clear
1:53 AM 35.1 °F 32.2 °F 32.0 °F 89% 29.93 in 10.0 mi NNE 3.5 mph - N/A   Clear
2:53 AM 35.1 °F 31.0 °F 30.9 °F 85% 29.91 in 10.0 mi North 4.6 mph - N/A   Clear
3:53 AM 34.0 °F - 30.9 °F 89% 29.90 in 10.0 mi Calm Calm - N/A   Clear
4:53 AM 33.1 °F - 30.0 °F 89% 29.91 in 10.0 mi Calm Calm - N/A   Clear
5:53 AM 36.0 °F - 30.0 °F 79% 29.90 in 10.0 mi Calm Calm - N/A   Clear
6:53 AM 32.0 °F 26.4 °F 28.9 °F 88% 29.92 in 10.0 mi ENE 5.8 mph - N/A   Clear
7:53 AM 35.1 °F 31.0 °F 32.0 °F 89% 29.95 in 10.0 mi NNE 4.6 mph - N/A   Clear
8:53 AM 46.0 °F - 34.0 °F 63% 29.90 in 10.0 mi Calm Calm - N/A   Clear
9:53 AM 50.0 °F - 30.0 °F 46% 29.93 in 10.0 mi SE 3.5 mph - N/A   Clear
10:53 AM 55.9 °F - 30.0 °F 37% 29.90 in 10.0 mi South 5.8 mph - N/A   Clear
11:53 AM 66.0 °F - 34.0 °F 30% 29.83 in 10.0 mi South 13.8 mph - N/A   Clear
12:53 PM 70.0 °F - 28.9 °F 22% 29.79 in 10.0 mi SSW 16.1 mph 25.3 mph N/A   Clear
1:53 PM 72.0 °F - 27.0 °F 19% 29.76 in 10.0 mi SSW 13.8 mph 25.3 mph N/A   Clear
2:53 PM 73.9 °F - 21.9 °F 14% 29.72 in 10.0 mi SW 15.0 mph 23.0 mph N/A   Clear
3:53 PM 73.0 °F - 19.9 °F 14% 29.71 in 10.0 mi SSW 19.6 mph 28.8 mph N/A   Clear
4:53 PM 73.0 °F - 17.1 °F 12% 29.70 in 10.0 mi SW 20.7 mph 27.6 mph N/A   Clear
5:53 PM 71.1 °F - 23.0 °F 16% 29.67 in 10.0 mi SSW 15.0 mph - N/A   Clear
6:53 PM 62.1 °F - 28.9 °F 29% 29.71 in 10.0 mi SW 6.9 mph - N/A   Clear
7:53 PM 55.0 °F - 28.0 °F 35% 29.72 in 10.0 mi Calm Calm - N/A   Clear
8:53 PM 52.0 °F - 28.0 °F 40% 29.68 in 10.0 mi Calm Calm - N/A   Scattered Clouds
9:53 PM 50.0 °F - 32.0 °F 50% 29.68 in 10.0 mi SSW 3.5 mph - N/A   Mostly Cloudy
10:53 PM 52.0 °F - 30.9 °F 45% 29.64 in 10.0 mi West 4.6 mph - N/A   Clear
11:53 PM 48.9 °F - 33.1 °F 54% 29.58 in 10.0 mi East 3.5 mph - N/A   Clear